Temp
20 21 21 22 23 23 23 23 22 22 22 22 22 21 21 21 22 22 21 21 21 21 21 21 21 21 21 21 21 21 21 21 21 21 21 20 21 21 21 22 22 23 20
21 21 21 22 22 22 22 22 22 22 22 22 22 22 21 21 21 21 22 21 21 21 21 21 21 21 21 21 21 21 21 21 21 21 22 22 21 21 21 22 22 22 20
21 21 22 22 22 22 22 22 22 22 21 22 22 22 22 22 22 22 22 21 21 21 21 21 21 21 21 21 21 21 21 22 21 22 23 25 24 21 21 21 21 20 20
22 24 24 22 22 22 22 22 22 21 21 21 22 22 22 22 22 22 21 21 21 21 21 21 21 21 21 21 21 21 21 21 22 23 25 26 26 22 21 21 21 21 21
25 25 23 22 22 22 22 22 22 22 22 22 22 22 22 21 22 22 22 22 21 21 21 21 21 21 21 22 22 22 22 22 22 24 25 24 24 23 21 21 21 21 21
26 25 22 21 21 22 22 22 22 22 22 22 22 22 21 21 21 21 21 21 21 21 21 21 21 21 22 22 22 22 22 22 23 26 25 24 24 23 21 21 21 21 21
26 25 23 21 21 22 22 22 22 22 22 22 22 21 21 21 21 21 21 22 21 21 21 21 21 21 22 22 23 23 23 23 24 26 25 25 24 23 22 21 21 21 21
26 25 24 22 21 22 22 22 22 22 22 22 22 22 22 22 22 22 22 21 22 22 21 21 22 22 22 23 23 23 23 24 26 26 26 26 24 23 22 22 21 20 20
26 25 24 24 22 21 21 22 22 22 22 22 22 22 22 22 23 23 23 23 22 22 22 22 22 22 23 23 23 23 23 24 24 27 26 27 24 23 23 22 21 21 21
25 25 24 23 24 24 23 22 22 22 23 23 22 22 23 23 23 23 23 23 22 22 22 22 22 22 23 23 23 23 23 24 25 28 27 27 25 23 23 23 22 22 22
25 24 24 24 23 23 24 23 23 23 23 23 24 23 24 26 25 25 24 23 23 23 23 23 23 23 23 23 24 24 24 26 27 27 27 26 24 24 23 23 22 22 22
26 25 24 24 24 24 25 23 24 24 25 25 24 24 25 24 24 24 24 24 24 23 24 24 24 23 24 25 26 25 26 27 27 27 27 26 24 24 24 23 23 22 22
26 26 25 24 24 25 25 25 25 25 25 24 23 23 24 24 24 25 25 26 25 25 26 26 26 26 25 25 26 26 26 26 26 27 27 25 24 24 24 24 23 23 23
26 26 25 24 23 24 24 25 25 26 25 25 25 23 24 25 24 24 25 25 24 24 24 23 24 24 24 24 25 25 25 26 27 26 26 25 24 24 23 24 24 23 23
26 26 25 24 23 23 23 25 25 25 25 26 25 25 24 24 24 24 25 25 25 26 26 24 24 24 24 25 25 24 25 25 25 26 26 26 25 24 23 23 24 23 23
26 26 25 24 23 23 23 23 23 24 25 25 26 25 24 24 25 25 25 26 26 26 26 25 24 24 24 25 25 25 24 25 25 25 26 26 25 24 24 23 23 23 23
26 26 25 24 24 23 23 23 23 25 25 25 25 24 24 24 24 24 26 26 26 25 24 25 25 26 26 26 26 25 25 25 25 25 25 25 26 25 24 23 24 24 23
27 26 25 25 25 23 23 23 24 25 25 26 26 26 25 24 24 24 26 27 26 25 26 26 26 26 26 26 26 26 25 25 25 25 25 25 25 26 25 24 23 23 23
26 26 25 25 25 24 23 24 24 24 24 26 26 26 26 25 25 25 26 27 25 26 26 26 26 26 26 26 26 26 25 25 25 26 25 24 24 24 25 25 23 22 22
27 26 25 25 24 24 24 23 25 25 25 26 26 26 25 26 25 25 26 25 25 26 27 26 24 25 25 26 25 26 26 25 25 25 25 25 26 24 24 24 24 24 23
27 26 25 25 24 24 24 25 25 26 26 26 26 25 25 25 25 25 26 26 25 25 24 24 25 25 25 25 24 26 26 26 25 26 25 26 25 25 24 24 23 24 24
28 26 25 25 24 24 25 25 26 27 27 27 27 26 25 25 24 25 24 25 25 25 25 24 23 24 26 25 24 25 27 28 27 26 25 24 25 23 24 24 23 22 22
28 27 26 25 25 24 25 25 25 25 25 26 26 26 26 25 24 24 24 24 24 24 26 23 24 23 25 24 22 23 26 26 25 26 26 25 23 23 23 23 22 22 22
29 28 27 26 25 25 24 26 25 26 27 27 27 27 26 25 25 25 24 24 23 24 22 24 23 22 22 24 24 23 22 22 24 25 25 24 24 24 24 23 23 23 22
30 29 28 27 25 25 25 25 26 25 27 27 27 26 25 25 24 25 24 23 22 23 23 22 22 21 23 22 23 23 23 23 23 23 24 25 24 24 24 23 23 23 22
31 30 30 28 26 25 25 24 25 26 26 27 27 27 27 27 25 23 23 22 22 22 21 22 21 21 21 21 21 22 23 23 23 23 24 24 24 24 23 23 23 23 23
Height
824 825 827 826 826 827 828 829 829 831 831 832 832 833 833 834 834 835 836 836 836 836 838 839 839 840 840 840 840 840 840 840 841 841 841 842 843 843 844 844 844 844 845
824 827 829 829 829 830 831 831 832 833 835 835 836 836 837 837 837 837 838 838 838 839 840 841 841 841 842 842 842 842 842 842 843 843 842 842 844 844 845 845 845 845 846
827 831 833 832 833 834 834 834 835 836 837 838 839 839 840 839 839 839 840 840 841 841 842 843 843 843 844 844 844 843 843 844 844 844 843 844 844 846 846 846 847 847 847
831 832 835 835 835 836 837 837 838 839 840 841 841 841 841 842 842 841 842 842 843 844 845 845 846 846 845 845 845 845 845 846 846 845 845 844 844 846 847 847 847 848 848
831 833 837 837 838 839 840 840 841 842 842 842 843 843 843 844 844 844 844 845 846 846 847 847 847 847 847 847 847 847 847 847 847 846 847 848 847 846 847 848 848 849 849
832 835 839 840 841 841 841 843 843 844 844 845 845 845 845 846 846 847 847 847 848 848 849 849 849 849 848 848 848 848 848 848 847 847 847 847 848 847 847 848 849 849 849
835 839 841 842 843 844 844 845 845 847 847 848 847 847 847 848 849 849 849 849 849 850 850 851 850 850 850 849 849 848 848 848 847 847 847 848 848 847 847 849 849 849 848
835 839 843 844 844 845 846 846 847 848 849 849 849 849 849 850 851 852 851 851 851 852 852 852 851 851 850 850 850 849 848 848 846 847 847 846 847 847 847 848 848 848 848
836 839 843 846 846 847 848 848 849 850 850 851 851 852 851 852 853 853 853 853 853 853 853 853 852 852 851 851 850 849 849 848 847 845 846 844 845 846 846 847 847 847 848
837 841 844 846 848 849 850 850 851 851 852 853 853 854 854 854 855 856 855 855 855 854 854 854 853 853 851 850 849 849 848 847 846 843 843 843 845 845 845 845 845 846 846
838 842 844 846 848 850 851 852 853 853 854 855 855 856 855 857 857 857 857 856 855 854 854 854 853 853 851 850 849 848 847 846 844 842 842 842 844 844 843 843 843 843 844
837 841 844 846 848 850 852 854 855 856 856 857 858 858 858 858 858 858 858 856 855 854 854 853 852 851 850 850 848 846 845 844 843 842 840 841 842 842 841 841 841 841 842
837 840 843 846 848 850 852 854 855 856 857 858 858 858 858 859 859 858 857 856 856 855 853 852 851 850 850 850 848 846 844 843 841 839 838 839 840 840 839 838 838 839 839
837 840 843 846 848 850 852 854 855 856 857 857 858 858 859 859 860 859 857 856 856 855 855 854 852 852 851 849 848 846 844 842 840 838 837 836 837 837 836 836 835 835 836
836 839 843 846 848 850 852 853 854 856 857 857 858 858 859 859 859 860 859 857 856 855 853 853 852 851 849 846 846 844 842 841 839 837 834 832 833 833 833 832 832 832 832
834 837 841 844 847 849 851 853 854 855 856 857 856 857 857 858 859 858 858 857 855 855 854 853 852 850 848 845 843 842 840 837 835 834 832 829 828 829 829 829 829 828 829
832 836 838 842 845 847 849 851 853 854 854 855 855 855 856 857 856 856 856 855 854 855 854 852 851 849 846 844 842 839 837 834 832 831 829 827 825 823 824 825 825 824 825
830 834 837 840 843 846 848 850 852 852 853 853 854 854 855 856 856 855 854 853 853 853 852 850 849 847 845 843 840 838 835 832 830 828 826 825 824 822 820 819 820 820 819
828 831 835 838 841 844 847 849 850 851 852 852 852 852 853 854 854 854 853 852 853 851 850 849 848 847 844 841 839 836 833 830 828 824 824 823 821 820 818 817 817 815 814
826 829 832 835 838 841 845 846 848 849 850 851 851 852 852 852 852 853 852 852 852 850 849 848 848 846 843 839 838 834 831 828 826 824 822 820 818 818 817 815 814 811 810
822 825 828 832 835 838 841 843 845 846 847 848 849 850 850 851 852 852 851 850 850 850 849 848 846 844 842 839 837 831 827 825 824 823 820 818 817 816 815 813 811 808 808
816 820 824 828 831 835 838 840 842 843 844 845 845 846 848 849 850 850 850 849 849 848 847 847 845 843 840 838 838 833 825 821 822 821 820 818 816 816 813 811 809 807 804
810 815 818 822 826 830 833 836 839 841 843 842 842 843 844 846 846 847 848 848 848 847 845 844 843 843 840 838 838 835 827 824 825 818 818 817 816 814 812 810 807 804 802
803 809 813 817 821 825 828 831 834 835 835 836 838 839 840 841 842 843 844 844 844 844 843 843 842 841 841 838 836 835 835 833 827 819 816 815 812 810 807 806 804 800 797
796 800 805 810 814 818 821 825 828 831 831 833 834 835 837 839 840 840 840 839 839 840 839 839 840 840 839 838 835 832 831 828 826 824 815 809 808 805 803 801 799 796 792
788 792 797 802 806 810 814 817 821 824 826 827 830 832 834 836 836 837 839 839 838 839 840 837 838 838 837 837 834 831 828 827 823 821 817 812 806 801 799 796 793 789 786
Wind_Speed
12 13 12 19 20 20 21 21 19 18 17 18 18 16 15 15 15 14 13 13 14 14 14 14 14 14 14 14 14 14 13 13 12 11 11 11 10 8 7 10 5 9 9
18 14 14 19 20 19 18 18 19 16 15 16 16 15 14 13 12 12 13 13 13 13 13 13 12 13 13 13 13 13 12 11 10 9 10 10 8 8 7 7 9 7 8
20 14 13 17 18 17 17 16 16 15 15 14 13 14 13 13 12 12 12 14 13 13 13 12 13 12 12 12 12 12 11 9 8 8 8 6 7 6 6 5 5 6 7
18 17 16 16 17 17 16 16 15 14 12 11 12 13 13 13 13 13 13 11 11 12 13 11 11 11 12 11 11 11 10 9 8 7 5 6 6 3 4 3 5 5 5
18 19 16 16 17 17 16 14 14 13 13 13 12 12 11 10 10 10 11 12 11 11 11 11 10 11 11 10 9 7 6 5 5 5 5 4 4 3 3 2 4 3 3
20 20 18 16 15 17 15 15 14 13 13 12 11 11 11 11 12 13 12 11 12 11 9 9 9 8 8 8 6 6 6 6 3 2 2 2 3 3 2 2 3 3 0
20 19 16 15 15 15 14 14 14 13 13 13 11 11 11 11 11 11 10 9 10 8 8 7 6 5 5 4 3 4 5 5 5 3 3 2 1 3 1 2 3 3 1
19 17 14 12 13 14 12 14 13 12 13 12 11 12 12 11 10 10 9 8 9 8 6 4 3 1 1 1 2 3 4 5 4 3 2 0 3 3 1 2 4 4 3
15 16 14 11 10 11 11 12 11 11 10 11 11 12 12 12 10 8 7 6 6 4 3 2 2 2 3 4 5 6 6 7 5 2 4 3 3 5 3 3 4 5 6
13 14 12 11 10 10 9 10 10 10 10 10 10 10 12 11 10 8 8 5 5 4 3 3 4 5 6 7 7 7 8 8 7 5 6 3 7 7 6 6 5 6 7
15 13 13 12 11 10 10 9 9 9 10 9 8 8 9 5 5 4 3 4 4 3 2 3 3 5 7 7 8 7 7 7 8 7 7 6 8 8 9 9 9 8 8
17 15 14 13 11 10 9 9 8 6 5 5 3 3 3 3 2 2 2 3 4 6 5 6 6 7 5 6 6 7 6 8 10 9 10 9 12 11 11 11 12 13 11
17 16 15 13 12 11 9 10 8 6 5 3 2 1 2 2 2 3 3 3 4 6 7 7 6 6 6 8 7 8 10 12 13 12 11 11 15 15 14 14 13 16 15
18 16 15 14 13 12 9 10 8 7 6 4 3 2 3 3 3 4 5 5 3 4 5 7 8 9 9 9 9 11 12 13 13 14 13 13 16 15 16 17 16 16 17
18 17 16 15 13 12 10 9 8 8 7 5 4 4 5 5 6 5 6 5 6 6 6 6 8 8 8 8 10 12 13 13 14 15 15 15 16 15 16 16 17 18 19
18 18 17 17 15 13 12 10 9 9 8 7 8 7 6 6 7 7 7 6 6 6 6 8 9 10 10 10 11 12 13 13 14 14 16 16 15 17 16 16 16 18 21
18 18 19 18 18 16 14 12 11 10 10 9 8 8 7 7 8 6 6 5 6 6 6 8 10 10 11 12 12 13 13 12 13 14 16 17 17 16 17 18 18 18 21
17 18 18 17 17 17 15 13 12 11 10 9 9 8 8 8 7 6 5 6 5 6 6 8 11 12 14 15 14 14 14 13 13 13 13 13 14 17 15 16 17 21 22
17 17 18 17 16 16 15 14 13 12 11 10 10 9 7 5 5 5 7 6 6 6 7 9 11 13 14 15 16 16 16 16 15 13 12 11 10 11 13 14 15 19 19
18 17 17 18 17 16 15 14 13 13 13 12 11 10 7 6 6 7 7 5 6 7 8 10 11 13 14 13 16 16 16 13 9 8 8 9 10 9 11 11 13 14 13
19 19 19 19 18 17 17 16 16 15 13 13 12 11 10 9 9 8 7 7 8 8 9 9 10 12 12 12 15 16 14 7 4 6 13 9 11 10 10 11 12 12 14
22 21 21 20 19 18 17 16 15 14 13 13 12 12 12 11 10 9 9 9 8 10 8 8 8 10 11 9 11 15 6 7 3 19 8 10 5 13 13 11 14 15 15
25 24 24 23 21 21 19 17 15 14 13 13 14 15 14 11 9 9 8 8 9 9 10 6 7 8 11 9 6 6 5 6 17 3 13 8 15 14 16 17 17 17 18
27 25 25 24 24 23 22 20 19 17 17 14 12 10 9 10 9 8 8 8 7 6 6 6 6 6 7 9 7 5 7 12 8 9 13 20 15 18 18 19 20 19 19
29 28 27 26 26 26 25 24 22 20 18 15 12 10 10 8 8 8 8 7 6 7 5 4 5 6 6 7 8 9 10 11 11 10 15 20 23 19 21 20 22 24 23
31 31 29 28 29 29 28 27 26 22 20 16 14 12 10 9 8 7 6 7 6 5 6 4 6 5 6 7 8 9 11 13 14 15 12 19 23 25 22 24 22 24 25
Wind_Direction
125 105 107 118 127 123 122 120 113 110 108 106 105 109 117 118 113 103 95 90 89 89 91 94 94 97 96 94 93 92 92 91 91 92 96 96 95 94 96 102 92 91 94
134 114 116 117 124 124 123 119 113 114 113 108 103 108 110 111 109 102 97 91 86 84 89 90 97 93 91 94 91 90 88 90 91 91 95 78 87 89 90 99 81 97 102
140 128 125 125 122 122 123 120 120 121 117 110 109 105 105 104 102 103 102 94 83 87 88 91 86 91 93 91 87 87 84 93 96 95 90 78 81 82 88 92 81 87 101
133 135 129 127 124 122 123 120 115 112 111 108 105 104 103 102 103 99 96 91 91 88 91 89 87 88 90 93 90 82 73 72 74 70 48 47 83 64 103 113 95 104 99
141 130 131 127 124 119 118 117 117 117 114 109 99 96 95 94 96 93 89 89 97 94 92 95 95 97 93 88 83 68 51 34 27 61 48 43 33 39 105 114 88 92 114
137 132 135 127 123 124 121 114 111 111 107 104 95 93 95 97 97 93 89 93 94 94 97 100 103 99 94 89 73 59 51 35 28 10 32 46 55 340 86 108 162 238 201
144 136 130 123 123 121 118 118 112 107 106 102 103 96 97 102 104 95 96 97 105 109 106 114 108 105 104 91 67 41 24 29 1 34 48 42 52 3 76 182 223 272 290
142 146 137 129 118 121 120 116 116 114 110 110 103 98 100 101 105 107 107 99 98 93 98 110 121 115 91 348 329 335 345 0 315 4 14 9 267 316 340 252 250 252 263
151 136 145 140 128 120 121 114 115 118 114 112 108 101 98 95 97 96 93 94 92 91 85 58 10 337 320 311 303 303 311 307 312 300 316 290 287 307 282 280 265 262 254
156 148 147 146 142 129 125 126 121 115 119 113 105 100 92 83 78 71 70 63 67 51 36 14 350 328 308 303 297 293 296 305 278 296 275 284 293 312 288 273 262 263 261
161 156 156 157 153 145 146 147 126 129 123 105 89 91 66 87 78 53 54 46 34 21 360 336 334 331 324 316 321 303 296 286 293 292 291 288 288 300 299 280 262 261 261
168 166 167 167 165 159 157 158 157 153 140 134 121 95 75 64 44 31 10 12 357 349 344 349 329 323 330 332 294 305 277 298 290 290 285 282 288 284 285 288 268 257 257
174 174 174 175 175 172 166 171 172 173 169 164 157 82 8 8 6 1 4 8 343 338 331 335 323 317 334 321 315 299 300 289 282 280 284 289 291 279 278 282 277 256 256
182 183 181 182 182 183 180 182 184 187 195 194 212 269 309 327 326 330 350 355 335 355 357 347 333 324 316 313 314 306 298 292 290 293 287 287 287 285 276 276 278 259 249
187 190 190 189 191 192 192 191 195 205 210 220 248 262 275 287 298 313 320 322 333 344 355 352 351 339 325 314 307 303 298 294 287 283 282 282 288 286 273 275 272 263 251
190 194 194 198 199 199 201 204 207 213 222 235 249 250 263 274 293 302 308 309 317 326 333 333 334 333 329 321 316 313 304 290 285 287 283 286 283 285 275 270 271 266 256
195 197 199 201 204 205 207 214 219 227 236 239 232 242 253 274 292 314 319 311 309 308 318 323 328 329 324 324 320 317 310 303 293 286 283 286 283 278 281 276 270 263 264
198 200 203 205 207 210 212 215 222 232 232 228 234 247 262 273 281 299 304 317 323 305 315 323 328 330 330 326 323 318 313 302 298 295 288 288 289 282 285 284 285 278 270
200 200 203 206 210 212 216 220 225 224 225 230 238 244 248 249 273 295 309 324 332 320 325 328 333 331 326 328 326 322 316 307 302 297 294 291 290 292 289 291 291 289 274
204 205 205 205 208 211 216 220 222 222 232 241 245 243 244 254 272 296 308 316 327 319 325 335 327 327 320 322 324 320 318 311 313 309 304 296 295 301 296 300 295 294 288
204 206 208 206 206 205 209 213 215 222 230 238 243 242 248 264 277 290 292 296 303 302 317 323 325 326 326 333 328 334 320 294 336 338 312 307 308 298 305 299 290 295 290
203 205 206 208 208 205 209 214 221 228 236 242 242 243 252 263 274 274 281 290 295 303 309 321 332 328 323 342 328 318 329 315 318 325 320 319 334 317 307 307 301 291 287
206 205 206 207 207 206 209 215 220 229 239 238 238 245 249 248 251 257 270 279 283 293 310 316 328 327 326 328 344 326 332 343 329 302 320 319 316 315 309 306 302 296 292
208 209 210 209 209 209 208 215 217 225 230 233 236 237 236 228 229 242 253 258 261 273 292 311 320 316 316 324 328 328 315 310 322 315 314 315 308 310 306 302 304 300 296
209 211 212 212 211 211 209 212 218 225 230 233 230 227 225 223 234 237 236 236 248 271 263 288 299 302 307 312 324 319 318 302 311 300 307 312 311 309 308 303 303 300 296
212 212 213 211 211 212 210 213 215 222 225 228 223 226 231 224 231 233 250 259 261 282 283 278 275 279 295 301 308 313 317 317 312 310 301 302 306 308 308 302 300 303 301